K9MWM-1 Weather Reports


Display with metric or nautical units.
time (UTC)temp
F
wind
direction
speed
MPH
gust
MPH
rain 1hr
in
rain 24hr
in
rain mn
in
humidity
%
barometer
mb
20220527025417 65 337 1.0 2.0 0.00 0.00 0.00
20220527024351 66 337 0.0 2.0 0.00 0.00 0.00
20220527023838 67 337 0.0 1.0 0.00 0.00 0.00
20220527023325 67 337 0.0 1.0 0.00 0.00 0.00
20220527022813 67 337 0.0 0.0 0.00 0.00 0.00
20220527022300 68 180 0.0 0.0 0.00 0.00 0.00
20220527021747 68 337 0.0 0.0 0.00 0.00 0.00
20220527020721 69 337 0.0 0.0 0.00 0.00 0.00
20220527020208 70 337 0.0 2.0 0.00 0.00 0.00
20220527015656 70 337 0.0 1.0 0.00 0.00 0.00
20220527015143 71 112 0.0 2.0 0.00 0.00 0.00
20220527014631 72 168 0.0 0.0 0.00 0.00 0.00
20220527014117 73 337 0.0 0.0 0.00 0.00 0.00
20220527013051 75 90 0.0 0.0 0.00 0.00 0.00
20220527012538 76 232 0.0 0.0 0.00 0.00 0.00
20220527012025 76 83 0.0 0.0 0.00 0.00 0.00
20220527011513 77 350 0.0 2.0 0.00 0.00 0.00
20220527011000 77 335 0.0 2.0 0.00 0.00 0.00
20220527010447 79 1 0.0 3.0 0.00 0.00 0.00
20220527005934 80 90 0.0 4.0 0.00 0.00 0.00
20220527005422 81 291 0.0 3.0 0.00 0.00 0.00
20220527004909 83 293 1.0 2.0 0.00 0.00 0.00
20220527004356 84 292 1.0 4.0 0.00 0.00 0.00
20220527003843 85 298 0.0 3.0 0.00 0.00 0.00
20220527003330 85 300 2.0 4.0 0.00 0.00 0.00
20220527002817 85 294 1.0 2.0 0.00 0.00 0.00
20220527002304 85 300 1.0 5.0 0.00 0.00 0.00
20220527001751 85 288 1.0 2.0 0.00 0.00 0.00
20220527001239 85 292 0.0 2.0 0.00 0.00 0.00
20220527000726 85 292 1.0 4.0 0.00 0.00 0.00
20220527000213 85 286 1.0 5.0 0.00 0.00 0.00
20220526235700 84 310 0.0 3.0 0.00 0.00 0.00
20220526235148 84 304 3.0 4.0 0.00 0.00 0.00
20220526233609 84 296 1.0 3.0 0.00 0.00 0.00
20220526233056 85 295 1.0 3.0 0.00 0.00 0.00
20220526232030 88 304 5.0 7.0 0.00 0.00 0.00
20220526231517 87 296 2.0 5.0 0.00 0.00 0.00
20220526225427 85 294 2.0 6.0 0.00 0.00 0.00
20220526224913 85 295 3.0 5.0 0.00 0.00 0.00
20220526224401 85 292 0.0 5.0 0.00 0.00 0.00
20220526223335 86 292 2.0 4.0 0.00 0.00 0.00
20220526222824 86 296 1.0 6.0 0.00 0.00 0.00
20220526222309 87 292 3.0 8.0 0.00 0.00 0.00
20220526221756 86 295 2.0 5.0 0.00 0.00 0.00
20220526221243 86 300 1.0 7.0 0.00 0.00 0.00
20220526220731 86 294 2.0 12.0 0.00 0.00 0.00
20220526220218 86 293 1.0 6.0 0.00 0.00 0.00
20220526215705 86 294 3.0 6.0 0.00 0.00 0.00
20220526215152 85 292 2.0 8.0 0.00 0.00 0.00
20220526214639 85 292 6.0 8.0 0.00 0.00 0.00
20220526213614 85 296 3.0 6.0 0.00 0.00 0.00
20220526213101 85 293 3.0 8.0 0.00 0.00 0.00
20220526212035 85 293 5.0 9.0 0.00 0.00 0.00
20220526211523 86 297 4.0 8.0 0.00 0.00 0.00
20220526211009 86 292 3.0 7.0 0.00 0.00 0.00
20220526210457 85 299 1.0 3.0 0.00 0.00 0.00
20220526205944 85 292 2.0 8.0 0.00 0.00 0.00
20220526205431 85 294 2.0 8.0 0.00 0.00 0.00
20220526204918 85 282 2.0 5.0 0.00 0.00 0.00
20220526204406 85 292 3.0 8.0 0.00 0.00 0.00
20220526203340 85 294 2.0 10.0 0.00 0.00 0.00
20220526202827 85 285 2.0 5.0 0.00 0.00 0.00
20220526202314 85 294 1.0 5.0 0.00 0.00 0.00
20220526201801 85 292 0.0 5.0 0.00 0.00 0.00
20220526201249 85 298 1.0 9.0 0.00 0.00 0.00
20220526200912 85 292 1.0 5.0 0.00 0.00 0.00
20220526200736 85 292 1.0 5.0 0.00 0.00 0.00
20220526200223 84 292 3.0 8.0 0.00 0.00 0.00
20220526195157 84 297 3.0 5.0 0.00 0.00 0.00
20220526194644 83 303 0.0 7.0 0.00 0.00 0.00
20220526194131 82 296 2.0 8.0 0.00 0.00 0.00
20220526193619 82 294 4.0 11.0 0.00 0.00 0.00
20220526193106 83 292 5.0 8.0 0.00 0.00 0.00
20220526192553 83 294 2.0 9.0 0.00 0.00 0.00
20220526192040 82 292 3.0 5.0 0.00 0.00 0.00
20220526191014 82 293 3.0 11.0 0.00 0.00 0.00
20220526190501 82 296 2.0 9.0 0.00 0.00 0.00
20220526185948 82 289 1.0 8.0 0.00 0.00 0.00
20220526185436 83 294 2.0 7.0 0.00 0.00 0.00
20220526184923 83 288 4.0 9.0 0.00 0.00 0.00
20220526184410 83 311 1.0 2.0 0.00 0.00 0.00
20220526183857 82 306 2.0 8.0 0.00 0.00 0.00
20220526183345 82 308 1.0 6.0 0.00 0.00 0.00
20220526182832 82 245 2.0 4.0 0.00 0.00 0.00
20220526182319 81 320 1.0 7.0 0.00 0.00 0.00
20220526181806 81 310 2.0 7.0 0.00 0.00 0.00
20220526181253 81 320 3.0 7.0 0.00 0.00 0.00
20220526180740 81 305 4.0 6.0 0.00 0.00 0.00
20220526180227 81 320 2.0 4.0 0.00 0.00 0.00
20220526175715 81 315 1.0 5.0 0.00 0.00 0.00
20220526175202 81 331 1.0 5.0 0.00 0.00 0.00
20220526174649 81 292 1.0 5.0 0.00 0.00 0.00
20220526174136 81 322 3.0 4.0 0.00 0.00 0.00
20220526173110 80 344 1.0 3.0 0.00 0.00 0.00
20220526172559 79 67 1.0 4.0 0.00 0.00 0.00
20220526172043 78 322 1.0 2.0 0.00 0.00 0.00
20220526171532 78 337 0.0 4.0 0.00 0.00 0.00
20220526171019 77 275 0.0 3.0 0.00 0.00 0.00
20220526170506 77 328 1.0 3.0 0.00 0.00 0.00
20220526165954 76 265 1.0 3.0 0.00 0.00 0.00
20220526165439 76 337 0.0 4.0 0.00 0.00 0.00
20220526164927 76 320 0.0 2.0 0.00 0.00 0.00
20220526164415 76 312 1.0 3.0 0.00 0.00 0.00
20220526163902 75 178 1.0 4.0 0.00 0.00 0.00
20220526163350 75 123 0.0 3.0 0.00 0.00 0.00
20220526162836 75 151 0.0 4.0 0.00 0.00 0.00
20220526161258 73 315 1.0 3.0 0.00 0.00 0.00
20220526160745 73 283 1.0 2.0 0.00 0.00 0.00
20220526160232 71 178 0.0 2.0 0.00 0.00 0.00
20220526155719 70 148 1.0 3.0 0.00 0.00 0.00
20220526155206 69 165 1.0 2.0 0.00 0.00 0.00
20220526154653 69 118 2.0 3.0 0.00 0.00 0.00
20220526154141 69 162 1.0 5.0 0.00 0.00 0.00
20220526153628 69 260 0.0 2.0 0.00 0.00 0.00
20220526153114 67 262 0.0 4.0 0.00 0.00 0.00
20220526152601 67 258 1.0 2.0 0.00 0.00 0.00
20220526152049 66 161 1.0 3.0 0.00 0.00 0.00
20220526151023 64 146 1.0 4.0 0.00 0.00 0.00
20220526145958 63 142 2.0 7.0 0.00 0.00 0.00
20220526145445 63 151 2.0 4.0 0.00 0.00 0.00
20220526144932 63 148 3.0 5.0 0.00 0.00 0.00
20220526143906 64 137 2.0 3.0 0.00 0.00 0.00
20220526143354 63 130 0.0 1.0 0.00 0.00 0.00
20220526142841 62 270 0.0 0.0 0.00 0.00 0.00
20220526142328 60 123 0.0 2.0 0.00 0.00 0.00
20220526141815 59 144 0.0 5.0 0.00 0.00 0.00
20220526141302 59 142 1.0 4.0 0.00 0.00 0.00
20220526140749 60 135 3.0 4.0 0.00 0.00 0.00
20220526140236 60 337 0.0 1.0 0.00 0.00 0.00
20220526135211 55 113 0.0 0.0 0.00 0.00 0.00
20220526134658 52 131 0.0 1.0 0.00 0.00 0.00
20220526134145 49 337 0.0 1.0 0.00 0.00 0.00
20220526133632 43 75 0.0 1.0 0.00 0.00 0.00
20220526133119 40 45 0.0 0.0 0.00 0.00 0.00
20220526132054 40 247 0.0 0.0 0.00 0.00 0.00
20220526131542 40 247 0.0 0.0 0.00 0.00 0.00
20220526131028 40 247 0.0 0.0 0.00 0.00 0.00
20220526130515 40 138 0.0 0.0 0.00 0.00 0.00
20220526125449 40 91 0.0 0.0 0.00 0.00 0.00
20220526124936 40 108 0.0 1.0 0.00 0.00 0.00
20220526123911 40 337 0.0 1.0 0.00 0.00 0.00
20220526122845 39 90 0.0 1.0 0.00 0.00 0.00
20220526122332 39 337 0.0 2.0 0.00 0.00 0.00
20220526121820 39 309 0.0 0.0 0.00 0.00 0.00
20220526120754 39 337 0.0 1.0 0.00 0.00 0.00
20220526115728 40 337 0.0 0.0 0.00 0.00 0.00
20220526114702 40 337 0.0 1.0 0.00 0.00 0.00
20220526114150 40 90 0.0 1.0 0.00 0.00 0.00
20220526113637 40 337 0.0 2.0 0.00 0.00 0.00
20220526113124 40 337 1.0 2.0 0.00 0.00 0.00
20220526112611 40 45 0.0 1.0 0.00 0.00 0.00
20220526112058 40 337 0.0 2.0 0.00 0.00 0.00
20220526111032 41 99 0.0 1.0 0.00 0.00 0.00
20220526110520 41 337 0.0 1.0 0.00 0.00 0.00
20220526110006 42 317 1.0 2.0 0.00 0.00 0.00
20220526105454 42 117 1.0 2.0 0.00 0.00 0.00
20220526104941 42 337 1.0 2.0 0.00 0.00 0.00
20220526104428 42 337 2.0 3.0 0.00 0.00 0.00
20220526103916 42 151 0.0 2.0 0.00 0.00 0.00
20220526103402 42 337 0.0 0.0 0.00 0.00 0.00
20220526102336 43 315 0.0 2.0 0.00 0.00 0.00
20220526101824 43 337 1.0 2.0 0.00 0.00 0.00
20220526101311 43 351 1.0 2.0 0.00 0.00 0.00
20220526100245 43 127 0.0 4.0 0.00 0.00 0.00
20220526095733 43 22 0.0 1.0 0.00 0.00 0.00
20220526095219 43 337 0.0 2.0 0.00 0.00 0.00
20220526094154 43 109 0.0 2.0 0.00 0.00 0.00
20220526093640 43 81 0.0 1.0 0.00 0.00 0.00
20220526093128 43 315 0.0 2.0 0.00 0.00 0.00
20220526092615 44 337 0.0 1.0 0.00 0.00 0.00
20220526092102 44 337 0.0 2.0 0.00 0.00 0.00
20220526091549 43 236 0.0 3.0 0.00 0.00 0.00
20220526091036 43 112 1.0 3.0 0.00 0.00 0.00
20220526090011 43 337 0.0 1.0 0.00 0.00 0.00
20220526085458 43 90 0.0 1.0 0.00 0.00 0.00
20220526084945 43 96 0.0 3.0 0.00 0.00 0.00
20220526084433 43 337 0.0 0.0 0.00 0.00 0.00
20220526083407 43 337 0.0 1.0 0.00 0.00 0.00
20220526082854 43 90 0.0 1.0 0.00 0.00 0.00
20220526081828 43 90 0.0 0.0 0.00 0.00 0.00
20220526081315 44 90 0.0 0.0 0.00 0.00 0.00
20220526080249 43 185 0.0 0.0 0.00 0.00 0.00
20220526075737 43 337 0.0 0.0 0.00 0.00 0.00
20220526075223 43 90 0.0 0.0 0.00 0.00 0.00
20220526074711 43 337 0.0 1.0 0.00 0.00 0.00
20220526073646 43 90 0.0 1.0 0.00 0.00 0.00
20220526073133 43 337 0.0 1.0 0.00 0.00 0.00
20220526072620 44 337 0.0 0.0 0.00 0.00 0.00
20220526071555 44 45 0.0 1.0 0.00 0.00 0.00
20220526071042 44 337 0.0 1.0 0.00 0.00 0.00
20220526070529 45 337 0.0 2.0 0.00 0.00 0.00
20220526070016 45 337 0.0 1.0 0.00 0.00 0.00
20220526065502 45 0 0.0 0.0 0.00 0.00 0.00
20220526064950 46 337 0.0 0.0 0.00 0.00 0.00
20220526063924 46 126 0.0 0.0 0.00 0.00 0.00
20220526063412 47 337 0.0 0.0 0.00 0.00 0.00
20220526062859 47 337 0.0 1.0 0.00 0.00 0.00
20220526062346 47 337 1.0 2.0 0.00 0.00 0.00
20220526061833 48 337 0.0 1.0 0.00 0.00 0.00
20220526061320 48 22 0.0 0.0 0.00 0.00 0.00
20220526060808 48 337 0.0 2.0 0.00 0.00 0.00
20220526060255 48 168 1.0 2.0 0.00 0.00 0.00
20220526055742 48 337 0.0 1.0 0.00 0.00 0.00
20220526055229 48 286 0.0 0.0 0.00 0.00 0.00
20220526054716 49 337 0.0 0.0 0.00 0.00 0.00
20220526053650 49 337 0.0 0.0 0.00 0.00 0.00
20220526053138 49 202 0.0 0.0 0.00 0.00 0.00
20220526052625 49 90 0.0 1.0 0.00 0.00 0.00
20220526052113 49 99 0.0 0.0 0.00 0.00 0.00
20220526051559 50 309 0.0 0.0 0.00 0.00 0.00
20220526051046 50 91 0.0 0.0 0.00 0.00 0.00
20220526050533 51 337 0.0 0.0 0.00 0.00 0.00
20220526050020 51 337 0.0 1.0 0.00 0.00 0.00
20220526045508 51 337 0.0 0.0 0.00 0.00 0.00
20220526044442 52 337 0.0 1.0 0.00 0.00 0.00
20220526043929 53 337 0.0 0.0 0.00 0.00 0.00
20220526043416 53 337 0.0 1.0 0.00 0.00 0.00
20220526042903 53 337 0.0 1.0 0.00 0.00 0.00
20220526042351 54 337 0.0 1.0 0.00 0.00 0.00
20220526041325 55 337 0.0 1.0 0.00 0.00 0.00
20220526040812 56 337 0.0 1.0 0.00 0.00 0.00
20220526035746 55 112 1.0 4.0 0.00 0.00 0.00
20220526035234 55 337 1.0 3.0 0.00 0.00 0.00
20220526034721 55 337 0.0 2.0 0.00 0.00 0.00
20220526034208 54 337 0.0 1.0 0.00 0.00 0.00
20220526033655 54 348 0.0 0.0 0.00 0.00 0.00
20220526033142 55 337 0.0 0.0 0.00 0.00 0.00
20220526032629 55 225 0.0 0.0 0.00 0.00 0.00
20220526031604 55 337 0.0 1.0 0.00 0.00 0.00
20220526030538 55 337 0.0 1.0 0.00 0.00 0.00
20220526030025 56 337 0.0 1.0 0.00 0.00 0.00